Powrót do katalogu

STARLINK-4123

AktywnyŁącznośćVLEO
NORAD 53539·PAYLOAD·🇺🇸 United States

Wystrzelony Aug 19, 2022 z Cape Canaveral Space Force Station

Loading…

Następne Przeloty (najbliższe 24 godziny)

TLE

ŚwieżeSource: CelesTrak SupGP

Epoka: Sep 15, 2026, 02:55 UTC

1 53539C 22101N   26258.12201389 -.00664440  00000+0 -19159-1 0  2589
2 53539  53.1596 294.5176 0001401  87.8318  89.2112 15.35487396    16

Śledź STARLINK-4123 w czasie rzeczywistym z AllMySat

Download on the App Store